CW0570 Weather Reports


Display with metric or nautical units.
time (UTC)temp
F
wind
direction
speed
MPH
gust
MPH
rain 1hr
in
rain 24hr
in
rain mn
in
humidity
%
barometer
mb
20260506204539 64 161 2.0 6.0 0.00 0.00 0.00 77 1022.1
20260506203037 65 109 3.0 8.0 0.00 0.00 0.00 77 1022.1
20260506201537 65 247 2.0 7.0 0.00 0.00 0.00 78 1022.1
20260506200042 65 69 1.0 10.0 0.00 0.00 0.00 76 1022.2
20260506194544 64 9 1.0 7.0 0.00 0.00 0.00 78 1022.2
20260506193035 64 230 1.0 9.0 0.00 0.00 0.00 77 1022.2
20260506191534 65 254 2.0 8.0 0.00 0.00 0.00 77 1022.0
20260506190031 64 254 2.0 8.0 0.00 0.00 0.00 79 1021.9
20260506184530 64 292 2.0 7.0 0.00 0.00 0.00 77 1022.1
20260506183030 63 92 0.0 3.0 0.00 0.00 0.00 79 1022.1
20260506181524 62 284 3.0 7.0 0.00 0.00 0.00 80 1022.2
20260506180020 61 258 1.0 6.0 0.00 0.00 0.00 82 1022.2
20260506174517 60 230 1.0 4.0 0.00 0.00 0.00 84 1022.4
20260506173020 59 273 1.0 3.0 0.00 0.00 0.00 83 1022.3
20260506171509 57 133 1.0 2.0 0.00 0.00 0.00 85 1022.3
20260506170007 56 317 0.0 2.0 0.00 0.00 0.00 86 1022.3
20260506164505 56 15 1.0 3.0 0.00 0.00 0.00 87 1022.2
20260506163002 55 360 1.0 4.0 0.00 0.00 0.00 87 1022.5
20260506161601 55 360 0.0 2.0 0.00 0.00 0.00 87 1022.2
20260506160111 54 360 0.0 2.0 0.00 0.00 0.00 88 1022.6
20260506154557 54 360 0.0 2.0 0.00 0.00 0.00 91 1022.7
20260506153058 53 360 0.0 2.0 0.00 0.00 0.00 93 1022.8
20260506151553 53 360 0.0 2.0 0.00 0.00 0.00 94 1022.7
20260506150053 53 360 0.0 0.0 0.00 0.00 0.00 94 1022.6
20260506144552 52 360 0.0 2.0 0.00 0.00 0.00 95 1022.4
20260506143050 52 360 0.0 1.0 0.00 0.00 0.00 95 1022.3
20260506141606 52 360 0.0 0.0 0.00 0.00 0.00 95 1022.2
20260506140048 52 360 0.0 0.0 0.00 0.00 0.00 95 1021.9
20260506134546 52 360 0.0 0.0 0.00 0.00 0.00 95 1021.9
20260506133045 52 360 0.0 0.0 0.00 0.00 0.00 95 1021.7
20260506131545 52 360 0.0 0.0 0.00 0.00 0.00 95 1021.7
20260506130042 52 360 0.0 0.0 0.00 0.00 0.00 95 1021.7
20260506124543 52 360 0.0 0.0 0.00 0.00 0.00 95 1021.7
20260506123044 52 360 0.0 2.0 0.00 0.00 0.00 95 1021.6
20260506121543 52 360 0.0 0.0 0.00 0.00 0.00 94 1021.5
20260506120105 52 360 0.0 1.0 0.00 0.00 0.00 94 1021.3
20260506114539 52 360 0.0 0.0 0.00 0.00 0.00 94 1021.3
20260506113035 52 360 0.0 0.0 0.00 0.00 0.00 94 1021.2
20260506111533 52 360 0.0 0.0 0.00 0.00 0.00 94 1021.0
20260506110032 52 360 0.0 1.0 0.00 0.00 0.00 93 1020.9
20260506104532 52 360 0.0 0.0 0.00 0.00 0.00 93 1020.9
20260506103031 52 360 0.0 0.0 0.00 0.00 0.00 93 1020.7
20260506101527 52 327 0.0 1.0 0.00 0.00 0.00 92 1020.5
20260506100025 52 327 0.0 2.0 0.00 0.00 0.00 92 1020.4
20260506094532 52 325 0.0 2.0 0.00 0.00 0.00 92 1020.3
20260506093039 53 325 0.0 3.0 0.00 0.00 0.00 91 1020.3
20260506091524 53 332 0.0 2.0 0.00 0.00 0.00 91 1020.2
20260506090019 53 19 0.0 2.0 0.00 0.00 0.00 90 1020.1
20260506084519 53 35 0.0 2.0 0.00 0.00 0.00 90 1020.1
20260506083017 53 35 0.0 0.0 0.00 0.00 0.00 90 1019.9
20260506081516 53 35 0.0 2.0 0.00 0.00 0.00 89 1019.9
20260506073010 53 351 0.0 0.0 0.00 0.00 0.00 89 1019.5
20260506071510 53 351 0.0 2.0 0.00 0.00 0.00 89 1019.3
20260506061505 54 349 0.0 3.0 0.00 0.00 0.00 88 1019.2
20260506044603 54 311 0.0 3.0 0.00 0.00 0.00 87 1018.8
20260506043057 55 346 0.0 2.0 0.00 0.00 0.00 87 1018.7
20260506041557 55 332 0.0 2.0 0.00 0.00 0.00 86 1018.5
20260506040058 55 332 0.0 0.0 0.00 0.00 0.00 86 1018.2
20260506034553 55 332 0.0 2.0 0.00 0.00 0.00 85 1018.2
20260506033050 56 332 0.0 0.0 0.00 0.00 0.00 85 1017.9
20260506031558 56 332 0.0 0.0 0.00 0.00 0.00 85 1017.8
20260506030105 56 332 0.0 3.0 0.00 0.00 0.00 84 1017.7
20260506024546 57 133 0.0 2.0 0.00 0.00 0.00 84 1017.5
20260506023043 57 133 0.0 2.0 0.00 0.00 0.00 84 1017.4
20260506021543 57 152 1.0 2.0 0.00 0.00 0.00 83 1017.2
20260506020044 58 259 1.0 4.0 0.00 0.00 0.00 81 1017.1
20260506014543 58 335 1.0 5.0 0.00 0.00 0.00 81 1017.0
20260506013046 59 15 2.0 6.0 0.00 0.00 0.00 80 1017.0
20260506011541 62 13 2.0 8.0 0.00 0.00 0.00 75 1016.9
20260506010041 63 257 2.0 5.0 0.00 0.00 0.00 74 1016.8
20260506004610 62 35 1.0 9.0 0.00 0.00 0.00 76 1016.7
20260506003039 63 244 2.0 8.0 0.00 0.00 0.00 74 1016.7
20260506001539 63 342 1.0 7.0 0.00 0.00 0.00 74 1016.7
20260506000043 63 267 4.0 8.0 0.00 0.00 0.00 73 1016.7
20260505234605 63 306 3.0 10.0 0.00 0.00 0.00 75 1016.7
20260505233036 64 246 3.0 9.0 0.00 0.00 0.00 72 1016.8
20260505231537 65 264 3.0 7.0 0.00 0.00 0.00 73 1016.8
20260505230035 65 128 2.0 9.0 0.00 0.00 0.00 74 1016.7
20260505224534 64 250 3.0 9.0 0.00 0.00 0.00 72 1016.7
20260505223037 64 182 1.0 10.0 0.00 0.00 0.00 75 1016.7
20260505221532 65 227 1.0 9.0 0.00 0.00 0.00 72 1016.5
20260505220031 66 296 3.0 9.0 0.00 0.00 0.00 71 1016.5
20260505214538 66 151 3.0 8.0 0.00 0.00 0.00 74 1016.3
20260505213030 66 227 2.0 8.0 0.00 0.00 0.00 74 1016.1
20260505211530 66 246 2.0 8.0 0.00 0.00 0.00 72 1016.1
20260505210030 67 128 2.0 8.0 0.00 0.00 0.00 70 1016.2